Location: Unspecified
(0.0000°N, 0.0000°E)
Time: 09:16:11
(UTC-01:00)

Hubble Space Telescope - Visible Passes

Search period start: 25 June 2018 00:00
Search period end: 05 July 2018 00:00
Orbit: 537 x 541 km, 28.5° (Epoch: 24 June)

Date Brightness Start Highest point End Pass type
(mag) Time Alt. Az. Time Alt. Az. Time Alt. Az.
25 Jun 3.9 19:36:44 10° NW 19:37:02 12° NNW 19:37:02 12° NNW visible
26 Jun 3.4 19:26:08 10° NW 19:27:16 17° NW 19:27:16 17° NW visible
27 Jun 3.2 17:36:55 10° N 17:38:29 12° NNE 17:40:02 10° NE visible
27 Jun 2.8 19:15:40 10° NW 19:17:33 26° NW 19:17:33 26° NW visible
28 Jun 2.9 17:25:36 10° NNW 17:28:12 16° NNE 17:30:49 10° ENE visible
28 Jun 2.2 19:05:17 10° WNW 19:07:51 37° WNW 19:07:51 37° WNW visible
29 Jun 1.7 18:55:02 10° WNW 18:58:11 45° WSW 18:58:11 45° WSW visible
30 Jun 1.7 18:44:52 10° W 18:48:33 39° SW 18:48:33 39° SW visible
01 Jul 2.1 18:34:51 10° W 18:38:25 28° SSW 18:38:56 27° SSW visible
02 Jul 2.6 18:25:00 10° WSW 18:28:06 20° SSW 18:29:19 18° S visible
03 Jul 3.5 03:01:42 12° SE 03:01:42 12° SE 03:02:27 10° SE visible
03 Jul 3.0 18:15:23 10° WSW 18:17:49 15° SSW 18:19:42 12° S visible
04 Jul 3.4 02:52:05 14° ESE 02:52:05 14° ESE 02:53:02 10° ESE visible
04 Jul 0.8 04:27:26 11° WSW 04:31:25 74° NNW 04:35:32 10° NE visible
04 Jul 3.3 18:06:21 10° SW 18:07:32 11° SSW 18:08:43 10° S visible
